weather.gov     
National Weather Service

Regional Weather Roundup
NWS Homepage
This page is being discontinued on March 12, 2014.
The same data is available at this site. Please update your bookmarks.
Thank you, and we apologize for the inconvenience.
Please send an email to SR-SRH.Webmaster@noaa.gov with any concerns.


Current Version
Previous Version:    01  02  03  04  05  06  07  08  09  10  11  12  13  14  15  16  17  18  19  20  21  22  23  24  25  26  27  28  29  30  
   31  32  33  34  35  36  37  38  39  40  41  42  43  44  45  46  47  48  49  50  51  52  53  54  55  56  57  58  59  60  
[Printable]
860
ASCA44 KEWX 010420
RWRMX

LATIN AMERICA AND CARIBBEAN REGIONAL WEATHER ROUNDUP
NATIONAL WEATHER SERVICE AUSTIN/SAN ANTONIO TX
1100 PM CDT FRI OCT 31 2014

NOTE: "FAIR" INDICATED FEW OR NO CLOUDS BELOW 12,000 FEET WITH NO
SIGNIFICANT WEATHER AND/OR OBSTRUCTIONS TO VISIBILITY.

BAJA CALIFORNIA

CITY           SKY/WX    TMP DP  RH WIND       PRES   REMARKS
LA PAZ         CLEAR     75  64  69 W7        29.90
MEXICALI       PTCLDY    73  61  64 SE5       29.75
S.J. DEL CABO    N/A    N/A N/A N/A MISG        N/A
TIJUANA        MOCLDY    66  57  72 SW6       29.91S

NORTHWESTERN MEXICO

CITY           SKY/WX    TMP DP  RH WIND       PRES   REMARKS
CULIACAN       PTCLDY    82  68  61 CALM      29.84
DURANGO        PTCLDY    54  34  47 NW5       30.33R
HERMOSILLO     MOCLDY    75  59  57 CALM      29.90
LOS MOCHIS     PTCLDY    77  66  69 NW6       29.86R
OBREGON          N/A    N/A N/A N/A MISG        N/A

NORTHEASTERN MEXICO

CITY           SKY/WX    TMP DP  RH WIND       PRES   REMARKS
CHIHUAHUA      PTCLDY    70  39  32 SE9G22    30.24
MATAMOROS      CLEAR     64  63  94 CALM      30.25
MONTERREY      MOCLDY    68  61  77 S3        30.27R
REYNOSA        CLEAR     63  55  77 N3        30.24
SALTILLO       CLEAR     54  50  87 N12       30.38R
TORREON        PTCLDY    68  48  49 NE8       30.25R
CD. VICTORIA   CLOUDY    66  66 100 NW6       30.26

WESTERN MEXICO

CITY           SKY/WX    TMP DP  RH WIND       PRES   REMARKS
AGUASCALIENTES CLEAR     55  36  47 NE13      30.39
COLIMA         MOCLDY    73  72  94 CALM      30.01R FOG
DEL BAJIO      CLEAR     59  41  51 E9        30.41R
GUADALAJARA    CLEAR     59  41  51 CALM      30.26
MAZATLAN       MOCLDY    73  70  88 SW7       29.82R
P. VALLARTA    CLEAR     79  75  89 CALM      29.86R
ZACATECAS      CLEAR     54  34  47 SE15      30.39R

CENTRAL MEXICO

CITY           SKY/WX    TMP DP  RH WIND       PRES   REMARKS
MEXICO CITY    MOCLDY    55  43  62 N7        30.45R
MORELIA        CLEAR     57  45  62 NE5       30.32
PUEBLA         PTCLDY    50  43  76 N12       30.43R WCI  46
QUERETARO      CLEAR     50  45  81 E6        30.45R WCI  48
S. LUIS POTOSI PTCLDY    55  45  67 E13       30.41R
TAMPICO        PTCLDY    77  70  78 N12       30.17R
TOLUCA         PTCLDY    48  37  66 N12       30.47R WCI  43

SOUTHERN MEXICO

CITY           SKY/WX    TMP DP  RH WIND       PRES   REMARKS
ACAPULCO       CLOUDY    81  79  94 E5        29.88R
OAXACA         MOCLDY    61  52  72 N6        30.31R
VERACRUZ       CLOUDY    70  66  88 NW9       30.15R

YUCATAN PENINSULA

CITY           SKY/WX    TMP DP  RH WIND       PRES   REMARKS
CAMPECHE       PTCLDY    75  72  88 N12       30.03R
CANCUN         PTCLDY    72  70  94 N6        30.00S
COZUMEL        PTCLDY    73  70  88 N12       30.00S
MERIDA         CLEAR     73  64  73 NE5       30.05R
TAPACHULA      CLOUDY    75  73  94 CALM      29.93S
TUX. GUTIERREZ MOCLDY    73  64  73 W16       30.05R
VILLAHERMOSA   CLOUDY    73  72  94 CALM      30.10R

CENTRAL AMERICA

CITY           SKY/WX    TMP DP  RH WIND       PRES   REMARKS
MANAGUA        PTCLDY    79  73  83 SE5       29.86S

CARIBBEAN

CITY           SKY/WX    TMP DP  RH WIND       PRES   REMARKS
ARUBA          PTCLDY    82  77  83 E13       29.86S HX  91
CURACAO        PTCLDY    82  77  83 SE10      29.89R HX  91
KINGSTON       PTCLDY    82  75  78 SE5       29.89S
NASSAU         PTCLDY    77  68  73 W10       29.88S
SAN JUAN       CLEAR     81  75  83 CALM      29.94S
SANTO DOMINGO  PTCLDY    79  73  83 S6        29.92R
ST. CROIX      PTCLDY    82  73  74 E7        29.96
ST. MAARTEN    PTCLDY    82  75  78 SE7       29.94S
ST. THOMAS     PTCLDY    82  75  78 SE9       29.95

$$





U.S. Dept. of Commerce
NOAA National Weather Service
1325 East West Highway
Silver Spring, MD 20910
E-mail: w-nws.webmaster@noaa.gov
Page last modified: May 16, 2007
NATIONAL WEATHER SERVICE: for Safety, for Work, for Fun - FOR LIFE